Tracking 19563 objects as of 20-Mar-2019
HD Live streaming from Space Station
objects crossing your sky now

FENGYUN 1C DEB

Track FENGYUN 1C DEB now!
10-day predictions


NORAD ID: 31622
Int'l Code: 1999-025CAC
Perigee: 824.6 km
Apogee: 854.6 km
Inclination: 99.0 °
Period: 101.6 minutes
Semi major axis: 7210 km
RCS: 0.0179 m2 (small)
Launch date: May 10, 1999
Source: People's Republic of China (PRC)
Launch site: Taiyaun Space Center, China (TSC)

Note: This is SATELLITE DEBRIS
aabbcc
Your satellite tracking list
Your tracking list is empty




NASA's NSSDC Master Catalog

Two Line Element Set (TLE):
1 31622U 99025CAC 19078.59680292 +.00000684 +00000-0 +35633-3 0  9996
2 31622 098.9563 121.6968 0020801 228.3581 284.0394 14.17891416607846
Source of the keplerian elements: AFSPC